Date String (YYYY-MM-DD hh:mm:ss) UTC,Instrument flags,Ambient pressure (hPa),Sample flow (lpm),Bypass flow (lpm),Sample temperature (°C),Ambient temperature (°C),ASC tube jacket temperature (°C),LED temperature (°C),Box temperature (°C),Sample RH (%),Span deviation,Mass concentration (μg/m³),Mass concentration (μg/m³),Mass concentration (μg/m³)
DateTimeUTC,F1_M11,P_M11,Q1_M11,Q2_M11,T1_M11,T2_M11,T3_M11,T4_M11,T5_M11,U1_M11,ZSPAN_M11,X0_M11,X2_M11,X1_M11
2022-11-07 23:00:00,,0822.6,5.00,0.00,28.9,27.7,00.0,37.6,30.8,12.1,0000.0,0021.02,0006.93,0005.64
2022-11-07 23:01:00,,0822.7,4.99,0.00,28.9,27.8,00.0,37.6,30.8,12.1,0000.0,0021.67,0006.90,0005.63
2022-11-07 23:02:00,,0822.6,5.00,0.00,28.9,27.8,00.0,37.6,30.8,12.1,0000.0,0022.38,0006.87,0005.61
2022-11-07 23:03:00,,0822.6,5.00,0.00,29.0,27.8,00.0,37.6,30.8,12.1,0000.0,0021.18,0006.83,0005.60
2022-11-07 23:04:00,,0822.7,5.00,0.00,29.0,27.8,00.0,37.6,30.8,12.2,0000.0,0019.78,0006.81,0005.57
2022-11-07 23:05:00,,0822.6,5.00,0.00,29.0,27.8,00.0,37.7,30.9,12.1,0000.0,0019.77,0006.77,0005.57
2022-11-07 23:06:00,,0822.7,5.00,0.00,29.0,27.8,00.0,37.7,30.9,12.1,0000.0,0018.85,0006.72,0005.55
2022-11-07 23:07:00,,0822.6,5.00,0.00,29.0,27.8,00.0,37.7,30.9,12.1,0000.0,0017.44,0006.71,0005.54
2022-11-07 23:08:00,,0822.6,5.00,0.00,29.0,27.8,00.0,37.7,30.9,12.1,0000.2,0017.99,0006.69,0005.54
2022-11-07 23:09:00,,0822.6,5.00,0.00,29.0,27.8,00.0,37.7,30.9,12.1,0000.6,0018.59,0006.69,0005.54
2022-11-07 23:10:00,,0822.6,5.00,0.00,29.0,27.8,00.0,37.7,30.9,12.1,0000.2,0018.56,0006.69,0005.56
2022-11-07 23:11:00,,0822.6,5.00,0.00,29.0,27.8,00.0,37.7,30.9,12.1,0000.0,0018.23,0006.69,0005.57
2022-11-07 23:12:00,,0822.6,4.99,0.00,29.0,27.8,00.0,37.7,30.9,12.1,0000.0,0017.42,0006.67,0005.59
2022-11-07 23:13:00,,0822.6,4.99,0.00,29.0,27.8,00.0,37.7,30.9,12.1,-000.3,0016.35,0006.71,0005.61
2022-11-07 23:14:00,,0822.6,4.99,0.00,29.0,27.8,00.0,37.7,30.9,12.1,-000.6,0016.22,0006.77,0005.63
2022-11-07 23:15:00,,0822.6,5.00,0.00,29.1,27.8,00.0,37.7,30.9,12.1,-000.1,0016.82,0006.80,0005.64
2022-11-07 23:16:00,,0822.6,5.00,0.00,29.1,27.8,00.0,37.7,30.9,12.1,0000.0,0016.20,0006.82,0005.66
2022-11-07 23:17:00,,0822.7,5.00,0.00,29.1,27.8,00.0,37.8,30.9,12.2,0000.0,0015.39,0006.83,0005.68
2022-11-07 23:18:00,,0822.6,5.01,0.00,29.1,27.9,00.0,37.8,30.9,12.1,0000.0,0015.54,0006.85,0005.71
2022-11-07 23:19:00,,0822.6,5.01,0.00,29.1,27.9,00.0,37.8,31.0,12.0,0000.0,0015.41,0006.90,0005.74
2022-11-07 23:20:00,,0822.6,5.00,0.00,29.1,27.9,00.0,37.8,31.0,12.0,0000.0,0014.22,0006.92,0005.77
2022-11-07 23:21:00,,0822.6,5.00,0.00,29.1,27.9,00.0,37.8,31.0,12.0,0000.0,0013.76,0006.96,0005.79
2022-11-07 23:22:00,,0822.6,5.00,0.00,29.1,27.9,00.0,37.8,31.0,12.0,0000.3,0013.60,0006.90,0005.82
2022-11-07 23:23:00,,0822.6,5.01,0.00,29.1,27.9,00.0,37.8,31.0,12.0,0000.3,0014.47,0006.91,0005.82
2022-11-07 23:24:00,,0822.6,5.00,0.00,29.1,27.9,00.0,37.8,31.0,12.0,0000.2,0014.79,0006.88,0005.84
2022-11-07 23:25:00,,0822.6,5.00,0.00,29.1,27.9,00.0,37.8,31.0,11.9,0000.3,0014.46,0006.89,0005.87
2022-11-07 23:26:00,,0822.6,5.00,0.00,29.1,27.9,00.0,37.8,31.0,11.9,0000.6,0013.90,0006.89,0005.90
2022-11-07 23:27:00,,0822.6,5.01,0.00,29.2,27.9,00.0,37.9,31.0,11.9,0000.2,0014.68,0006.97,0005.91
2022-11-07 23:28:00,,0822.6,5.00,0.00,29.2,27.9,00.0,37.9,31.0,11.9,-000.6,0015.25,0007.04,0005.94
2022-11-07 23:29:00,,0822.6,5.00,0.00,29.2,27.9,00.0,37.9,31.0,11.9,-000.9,0015.70,0007.05,0005.96
2022-11-07 23:30:00,,0822.6,5.00,0.00,29.2,27.9,00.0,37.9,31.0,11.9,-000.5,0016.51,0007.08,0005.98
2022-11-07 23:31:00,,0822.6,5.00,0.00,29.2,27.9,00.0,37.9,31.1,11.9,-001.0,0016.84,0007.15,0006.01
2022-11-07 23:32:00,,0822.6,5.00,0.00,29.2,28.0,00.0,37.9,31.1,11.9,-000.4,0016.80,0007.15,0006.03
2022-11-07 23:33:00,,0822.7,5.00,0.00,29.2,28.0,00.0,37.9,31.1,11.9,-001.9,0017.87,0007.20,0006.05
2022-11-07 23:34:00,,0822.6,5.00,0.00,29.2,28.0,00.0,37.9,31.1,11.9,-001.7,0017.39,0007.28,0006.08
2022-11-07 23:35:00,,0822.6,5.00,0.00,29.2,28.0,00.0,37.9,31.1,11.9,-001.5,0016.65,0007.35,0006.10
2022-11-07 23:36:00,,0822.6,5.00,0.00,29.2,28.0,00.0,37.9,31.1,11.9,-001.5,0017.41,0007.40,0006.12
2022-11-07 23:37:00,,0822.6,5.00,0.00,29.2,28.0,00.0,37.9,31.1,11.9,-002.0,0017.57,0007.41,0006.14
2022-11-07 23:38:00,,0822.7,5.00,0.00,29.2,28.0,00.0,37.9,31.1,11.9,-001.8,0017.60,0007.39,0006.18
2022-11-07 23:39:00,,0822.7,5.00,0.00,29.2,28.0,00.0,37.9,31.1,11.9,-001.2,0017.11,0007.41,0006.22
2022-11-07 23:40:00,,0822.7,5.00,0.00,29.3,28.0,00.0,38.0,31.1,11.9,-000.5,0016.60,0007.48,0006.26
2022-11-07 23:41:00,,0822.7,5.00,0.00,29.3,28.0,00.0,38.0,31.1,11.9,-000.7,0016.23,0007.53,0006.28
2022-11-07 23:42:00,,0822.7,5.00,0.00,29.3,28.0,00.0,38.0,31.1,11.9,-000.8,0016.86,0007.49,0006.29
2022-11-07 23:43:00,,0822.7,5.00,0.00,29.3,28.0,00.0,38.0,31.1,11.9,-000.7,0016.95,0007.52,0006.32
2022-11-07 23:44:00,,0822.7,5.00,0.00,29.3,28.0,00.0,38.0,31.1,11.9,-000.5,0016.28,0007.51,0006.34
2022-11-07 23:45:00,,0822.7,5.00,0.00,29.3,28.0,00.0,38.0,31.1,11.9,-000.2,0017.05,0007.50,0006.36
2022-11-07 23:46:00,,0822.7,5.00,0.00,29.3,28.0,00.0,38.0,31.1,11.9,0000.1,0017.90,0007.49,0006.40
2022-11-07 23:47:00,,0822.7,5.00,0.00,29.3,28.0,00.0,38.0,31.1,11.8,0000.3,0017.81,0007.54,0006.42
2022-11-07 23:48:00,,0822.7,5.00,0.00,29.3,28.0,00.0,38.0,31.1,11.8,0001.0,0018.49,0007.60,0006.45
2022-11-07 23:49:00,,0822.7,5.00,0.00,29.3,28.0,00.0,38.0,31.1,11.9,0002.7,0018.16,0007.69,0006.48
2022-11-07 23:50:00,,0822.7,5.00,0.00,29.3,28.0,00.0,38.0,31.1,11.9,0001.9,0018.09,0007.74,0006.50
2022-11-07 23:51:00,,0822.8,5.00,0.00,29.3,28.0,00.0,38.0,31.1,11.9,0001.2,0018.58,0007.75,0006.52
2022-11-07 23:52:00,,0822.8,5.00,0.00,29.3,28.0,00.0,38.0,31.1,11.9,0000.6,0018.78,0007.72,0006.54
2022-11-07 23:53:00,,0822.8,5.00,0.00,29.3,28.0,00.0,38.0,31.1,11.9,0002.2,0019.30,0007.74,0006.58
2022-11-07 23:54:00,,0822.8,5.00,0.00,29.3,28.0,00.0,38.0,31.1,11.9,0002.4,0020.08,0007.82,0006.61
2022-11-07 23:55:00,,0822.8,5.00,0.00,29.3,28.0,00.0,38.0,31.1,11.9,0002.3,0020.32,0007.92,0006.64
2022-11-07 23:56:00,,0822.9,5.00,0.00,29.3,28.0,00.0,38.0,31.1,11.9,0001.8,0020.10,0008.00,0006.68
2022-11-07 23:57:00,,0822.9,5.00,0.00,29.3,27.9,00.0,38.0,31.1,11.9,0001.3,0019.36,0008.04,0006.71
2022-11-07 23:58:00,,0823.0,5.00,0.00,29.3,27.9,00.0,38.0,31.1,11.9,0001.7,0018.90,0008.01,0006.75
2022-11-07 23:59:00,,0822.9,5.00,0.00,29.3,27.9,00.0,38.0,31.1,11.8,0002.2,0018.22,0008.04,0006.77
